[[{"header":{"parameterUnit":"m.s-1","parameterCategory":1,"la1":30.2991,"la2":30.254,"lo1":-89.0895,"lo2":-89.0444,"dy":0.0017,"dx":0.0017,"nx":28,"ny":28,"refTime":"2024-06-26T21:00:00:Z","depth":0,"parameterNumber":2,"parameterNumberName":"U-component_of_WINDS"},"data":[0,0,0,0,0,0,0,0,0,0,0,0,0,0,0,0,0,0,0,0,0,0,0,0,0,0,0,0,0,0,0,0,0,0,0,0,0,0,0,0,0,0,0,0,0,0,0,0,0,0,0,0,0,0,0,0,0,0,7.0474,7.0477,0,7.0766,7.077,7.0773,7.0759,7.0754,7.075,7.0746,7.105,7.1062,7.1074,0,0,0,0,0,0,0,0,0,0,0,0,0,6.9907,6.9917,7.0474,7.0478,7.0481,7.0766,7.077,7.0774,7.0759,7.0754,7.0749,7.0744,7.1047,7.1061,7.1075,0,0,0,0,0,0,0,0,0,0,0,0,0,7.0171,6.9921,7.0473,7.0508,7.0514,7.0765,7.077,7.0775,7.076,7.0754,7.0748,7.0742,7.1042,7.1059,7.1077,7.1314,0,0,7.1132,7.114,0,0,0,0,0,0,0,0,7.0156,7.0192,7.05,7.0506,7.0514,7.0719,7.0681,7.0956,7.0762,7.0667,7.0746,7.0739,7.0946,7.0971,7.104,7.1328,7.1341,7.1134,7.1145,7.1152,7.1157,0,0,0,0,0,0,0,7.0138,7.018,7.059,7.0504,7.0513,7.051,7.0541,7.0733,7.0838,7.0675,7.0674,7.0709,7.0948,7.1023,7.1047,7.1345,7.1133,7.1149,7.116,7.1167,7.1839,7.1846,0,0,0,0,0,0,7.0112,7.0164,7.0581,7.0599,7.0316,7.0526,7.056,7.066,7.0836,7.0857,7.0714,7.0707,7.0995,7.1026,7.1058,7.1343,7.1152,7.1169,7.1179,7.1832,7.1841,7.1848,0,0,0,0,0,0,7.01,7.0149,7.0569,7.0382,7.0435,7.0542,7.0654,7.0669,7.0743,7.0866,7.0885,7.077,7.0991,7.1032,7.1249,7.1354,7.1177,7.1194,7.1824,7.1835,7.1845,7.1919,0,0,0,0,0,0,7.0083,7.0145,7.0235,7.0384,7.0445,7.0755,7.0661,7.0679,7.0773,7.0767,7.0923,7.0943,7.0989,7.1222,7.1267,7.1375,7.1208,7.1815,7.1829,7.1841,7.1907,7.193,7.195,0,0,0,0,0,7.0063,7.0246,7.024,7.029,7.056,7.0761,7.0796,7.0843,7.0782,7.0874,7.0952,7.0938,7.1336,7.1245,7.1295,7.141,7.1808,7.1825,7.184,7.1898,7.1926,7.195,0,0,0,0,0,0,7.011,7.0266,7.0261,7.0497,7.0615,7.0758,7.0875,7.0873,7.1012,7.1001,7.1056,7.1091,7.1308,7.1381,7.1277,7.1647,7.1564,7.1591,7.1591,7.1619,7.164,7.1616,7.1223,0,0,0,0,0,7.0147,7.0296,7.0425,7.0621,7.0681,7.0768,7.0857,7.0883,7.1009,7.1059,7.1153,7.1277,7.1429,7.1528,7.1676,7.1918,7.1951,7.2023,7.2044,7.2061,7.2083,7.2214,7.2246,7.19,7.19,7.19,0,0,7.0227,7.033,7.0421,7.0633,7.0728,7.088,7.081,7.0976,7.1089,7.1085,7.1293,7.1367,7.1509,7.1738,7.1845,7.1806,7.2186,7.2081,7.2094,7.2107,7.2233,7.2266,7.2295,7.1911,7.1909,7.1908,0,0,7.0448,7.0543,7.0715,7.081,7.0953,7.101,7.1051,7.1194,7.1242,7.1452,7.145,7.1588,7.185,7.1949,7.2034,7.2292,7.2283,7.2339,7.245,7.2577,7.2604,7.2628,7.2717,7.2749,7.236,7.2361,7.2361,0,7.0529,7.0758,7.0804,7.097,7.1062,7.1063,7.1237,7.1328,7.1513,7.1577,7.1531,7.1858,7.1953,7.2205,7.2267,7.2337,7.2385,7.232,7.2596,7.2621,7.2645,7.273,7.2764,7.2366,7.2365,7.2365,7.2364,0,7.0849,7.1008,7.113,7.1305,7.1412,7.1581,7.1653,7.1756,7.1772,7.1833,7.2047,7.2161,7.2329,7.2392,7.2412,7.2646,7.2617,7.2584,7.2501,7.2682,7.2763,7.2797,7.2374,7.2372,7.237,7.2369,0,0,7.1109,7.1305,7.1349,7.1427,7.1584,7.1708,7.1877,7.204,7.2125,7.2253,7.2395,7.2616,7.2584,7.2681,7.2712,7.2824,7.3016,7.2776,7.278,7.2814,7.3278,7.33,7.3337,7.3012,7.3019,7.3024,7.3265,0,7.1345,7.1642,7.1687,7.1949,7.2095,7.2097,7.2244,7.2356,7.2418,7.2552,7.2621,7.2774,7.2723,7.2781,7.2892,7.2969,7.311,7.2953,7.3144,7.315,7.3105,7.338,7.3405,7.3627,7.3298,7.3303,7.3307,0,7.166,7.1792,7.2067,7.2201,7.2264,7.2395,7.2546,7.2675,7.2802,7.2839,7.2945,7.2962,7.3137,7.3048,7.3289,7.3181,7.3263,7.3313,7.3322,7.334,7.3238,7.3403,7.37,7.3732,7.3358,7.3354,7.335,0,7.1817,7.2065,7.2261,7.2328,7.249,7.2582,7.2654,7.2775,7.2869,7.3002,7.3063,7.3216,7.3299,7.3417,7.3474,7.3405,7.3711,7.3628,7.3746,7.3744,7.3809,7.3803,7.4119,7.3866,7.3865,7.3865,7.3864,0,7.2074,7.2242,7.2333,7.2453,7.2641,7.2692,7.2876,7.2946,7.3053,7.3187,7.32,7.3326,7.3395,7.3531,7.3578,7.3769,7.3808,7.3842,7.3852,7.3839,7.3834,7.3891,7.3876,7.3874,7.3872,7.387,7.3868,0,7.2282,7.2349,7.2562,7.2697,7.2735,7.2867,7.2983,7.31,7.316,7.3329,7.3372,7.3467,7.3628,7.3697,7.3896,7.3927,7.4144,7.4145,7.41,7.4103,7.4216,7.4203,7.4577,7.4628,7.4344,7.4346,7.4348,0,7.244,7.2568,7.2716,7.2805,7.2879,7.3024,7.3118,7.3174,7.3272,7.3425,7.3523,7.3683,7.3814,7.407,7.4158,7.4309,7.4311,7.4432,7.4334,7.4316,7.4309,7.43,7.4311,7.4449,7.4452,7.4455,7.4456,0,7.2712,7.2738,7.2874,7.302,7.3132,7.3251,7.3368,7.344,7.3514,7.3624,7.3786,7.3887,7.4088,7.4246,7.4402,7.4478,7.4479,7.4487,7.4521,7.4508,7.4476,7.4491,7.4146,7.4477,7.4475,7.4474,7.4473,7.4472,7.2898,7.3011,7.3131,7.328,7.3373,7.348,7.3595,7.3669,7.3805,7.397,7.3995,7.4168,7.4291,7.45,7.4582,7.4718,7.4688,7.4739,7.4752,7.4763,7.4768,7.4456,7.4747,7.4747,7.4746,7.4746,7.4746,0,7.3168,7.3245,7.3382,7.3542,7.3659,7.3648,7.3776,7.3875,7.4026,7.4139,7.4266,7.4452,7.4605,7.4704,7.4858,7.4948,7.4953,7.4987,7.4979,7.4996,7.4788,7.474,7.498,7.498,7.498,7.498,7.498,7.498,7.3322,7.3511,7.3551,7.3786,7.3862,7.4029,7.4102,7.4201,7.4291,7.4497,7.4623,7.4686,7.4793,7.4955,7.5094,7.5119,7.5174,7.521,7.5233,7.5036,7.5011,7.4988,7.4943,7.5222,7.5222,7.5429,7.5431,7.5433]},{"header":{"parameterUnit":"m.s-1","parameterCategory":1,"la1":30.2991,"la2":30.254,"lo1":-89.0895,"lo2":-89.0444,"dy":0.0017,"dx":0.0017,"nx":28,"ny":28,"refTime":"2024-06-26T21:00:00:Z","depth":0,"parameterNumber":3,"parameterNumberName":"V-component_of_WINDS"},"data":[0,0,0,0,0,0,0,0,0,0,0,0,0,0,0,0,0,0,0,0,0,0,0,0,0,0,0,0,0,0,0,0,0,0,0,0,0,0,0,0,0,0,0,0,0,0,0,0,0,0,0,0,0,0,0,0,0,0,3.1054,3.1053,0,3.1011,3.101,3.101,3.0966,3.0966,3.0965,3.0965,3.0919,3.0918,3.0918,0,0,0,0,0,0,0,0,0,0,0,0,0,3.1096,3.1095,3.1054,3.1053,3.1053,3.1011,3.101,3.101,3.0967,3.0966,3.0965,3.0964,3.0919,3.0918,3.0918,0,0,0,0,0,0,0,0,0,0,0,0,0,3.1068,3.1095,3.1054,3.1026,3.1023,3.1011,3.101,3.101,3.0967,3.0966,3.0965,3.0964,3.0919,3.0918,3.0917,3.0929,0,0,3.0914,3.0914,0,0,0,0,0,0,0,0,3.1069,3.1066,3.1031,3.1028,3.1025,3.0993,3.1008,3.0982,3.0967,3.0988,3.0965,3.0964,3.0944,3.0941,3.0935,3.0926,3.0924,3.0914,3.0914,3.0913,3.0913,0,0,0,0,0,0,0,3.1071,3.1068,3.1037,3.103,3.1027,3.1015,3.101,3.1003,3.0972,3.0986,3.0983,3.0979,3.0942,3.0936,3.0934,3.0924,3.0914,3.0913,3.0913,3.0912,3.0919,3.092,0,0,0,0,0,0,3.1078,3.107,3.1038,3.1036,3.1045,3.1015,3.1009,3.1004,3.0972,3.0966,3.0979,3.0977,3.0938,3.0935,3.0932,3.094,3.0913,3.0912,3.0912,3.0918,3.0919,3.092,0,0,0,0,0,0,3.1079,3.1075,3.104,3.1052,3.1046,3.1015,3.101,3.1004,3.0997,3.0966,3.096,3.0979,3.0937,3.0933,3.0929,3.0938,3.0912,3.0911,3.0917,3.0918,3.0919,3.0959,0,0,0,0,0,0,3.108,3.1076,3.1081,3.1052,3.1046,3.1039,3.101,3.1004,3.0996,3.0992,3.0964,3.0959,3.0936,3.0931,3.0928,3.0936,3.091,3.0916,3.0918,3.0919,3.0957,3.0962,3.0966,0,0,0,0,0,3.1082,3.1094,3.1081,3.1078,3.1051,3.104,3.1036,3.1011,3.0997,3.1001,3.098,3.096,3.0938,3.0931,3.0927,3.0936,3.0915,3.0917,3.0919,3.0955,3.0961,3.0966,0,0,0,0,0,0,3.1125,3.109,3.1075,3.1079,3.1063,3.1033,3.1037,3.1018,3.1005,3.1002,3.097,3.0964,3.0963,3.0949,3.0942,3.0943,3.0924,3.0925,3.0952,3.0958,3.0962,3.0965,3.0909,0,0,0,0,0,3.1135,3.1129,3.1099,3.1104,3.1097,3.1069,3.1063,3.1044,3.1026,3.1019,3.0998,3.0981,3.0969,3.0963,3.0951,3.0955,3.0947,3.0959,3.0963,3.0967,3.0968,3.0966,3.097,3.0926,3.0926,3.0926,0,0,3.1155,3.1135,3.1134,3.1113,3.1098,3.1091,3.1063,3.1058,3.1053,3.1018,3.1012,3.0996,3.0974,3.0974,3.0972,3.0962,3.0978,3.0969,3.0972,3.0971,3.0968,3.0972,3.0976,3.0927,3.0927,3.0926,0,0,3.1188,3.1174,3.1176,3.1161,3.1139,3.112,3.1121,3.1093,3.1081,3.1075,3.1048,3.104,3.1023,3.1007,3.0997,3.1022,3.1002,3.1019,3.1042,3.1041,3.1044,3.1047,3.1054,3.1057,3.1021,3.1021,3.1021,0,3.1216,3.1206,3.1179,3.1175,3.1166,3.1134,3.1135,3.1122,3.1098,3.1091,3.108,3.1055,3.1038,3.1032,3.1038,3.1032,3.1029,3.1022,3.1046,3.1049,3.1051,3.1057,3.106,3.1023,3.1023,3.1023,3.1022,0,3.124,3.1234,3.1238,3.1215,3.1206,3.1205,3.1176,3.117,3.1152,3.1133,3.1126,3.1104,3.1087,3.1084,3.1067,3.1075,3.1068,3.1052,3.1032,3.1058,3.1063,3.1065,3.1026,3.1025,3.1025,3.1024,0,0,3.13,3.1261,3.1263,3.1251,3.1223,3.1217,3.1213,3.1196,3.1191,3.1174,3.1169,3.1153,3.1137,3.1126,3.1106,3.1105,3.1123,3.1088,3.1087,3.1094,3.1128,3.114,3.1143,3.111,3.111,3.1111,3.1129,0,3.1328,3.132,3.1295,3.1294,3.1286,3.1255,3.1251,3.1233,3.1215,3.1205,3.1184,3.1173,3.1154,3.1146,3.1144,3.1122,3.113,3.112,3.1103,3.1102,3.1108,3.1146,3.1159,3.1178,3.1131,3.1132,3.1132,0,3.1359,3.1344,3.1343,3.1314,3.131,3.1307,3.1288,3.1279,3.1257,3.1244,3.123,3.1207,3.12,3.1181,3.1169,3.1163,3.1154,3.1141,3.1141,3.1138,3.1118,3.1142,3.1184,3.1186,3.1135,3.1135,3.1135,0,3.14,3.138,3.1376,3.1367,3.1334,3.1332,3.1318,3.1295,3.1286,3.1268,3.1261,3.1244,3.1233,3.1219,3.1192,3.1181,3.1181,3.1161,3.1168,3.1169,3.1169,3.1169,3.1208,3.1166,3.1166,3.1165,3.1165,0,3.1433,3.1433,3.1394,3.1392,3.139,3.136,3.1359,3.1341,3.1321,3.1313,3.1285,3.1277,3.1242,3.123,3.1208,3.12,3.1196,3.1183,3.1177,3.1185,3.1187,3.1178,3.1176,3.1166,3.1166,3.1166,3.1166,0,3.1479,3.1453,3.1447,3.1415,3.1407,3.1407,3.1379,3.1374,3.1354,3.1344,3.134,3.1308,3.1292,3.1263,3.124,3.1225,3.122,3.121,3.1228,3.1224,3.1232,3.1231,3.1266,3.1268,3.1226,3.1226,3.1226,0,3.1501,3.15,3.1468,3.1462,3.1448,3.1438,3.1428,3.1398,3.1388,3.1361,3.1359,3.1341,3.1326,3.1301,3.1275,3.1256,3.1244,3.1258,3.1241,3.1248,3.1242,3.1242,3.1241,3.1262,3.1262,3.1263,3.1263,0,3.1542,3.1529,3.1517,3.1499,3.1488,3.1472,3.1455,3.145,3.1416,3.1406,3.139,3.1378,3.1353,3.1334,3.1311,3.1294,3.1272,3.1269,3.1269,3.1276,3.1286,3.1279,3.1236,3.1268,3.1267,3.1267,3.1267,3.1267,3.1576,3.1573,3.1549,3.1535,3.1519,3.1503,3.1497,3.1476,3.1462,3.144,3.1422,3.1407,3.1382,3.1348,3.1333,3.1319,3.1309,3.131,3.131,3.131,3.1312,3.1289,3.1315,3.1314,3.1314,3.1314,3.1314,0,3.1614,3.1597,3.1585,3.1561,3.155,3.1531,3.151,3.1501,3.1489,3.1468,3.1453,3.1433,3.1414,3.1386,3.1364,3.1358,3.1347,3.1354,3.1353,3.1349,3.1324,3.1325,3.1363,3.1363,3.1363,3.1363,3.1363,3.1363,3.1632,3.1626,3.161,3.1594,3.1577,3.1562,3.1552,3.1536,3.1519,3.1498,3.1483,3.1465,3.144,3.1416,3.1397,3.1389,3.1382,3.1391,3.1379,3.1356,3.1351,3.1347,3.1348,3.139,3.139,3.1406,3.1406,3.1406]}]]